IBONHE1 Weather Reports


Display with metric or nautical units.
time (UTC)temp
F
wind
direction
speed
MPH
gust
MPH
rain 1hr
in
rain 24hr
in
rain mn
in
humidity
%
barometer
mb
20260505163004 53 106 1.0 6.0 0.00 1.37 0.17 89 1058.4
20260505161502 54 281 0.0 3.0 0.00 1.37 0.17 90 1058.5
20260505153059 53 94 0.0 2.0 0.00 1.37 0.17 90 1058.7
20260505151557 53 191 0.0 5.0 0.00 1.37 0.17 90 1058.8
20260505124546 52 53 0.0 3.0 0.00 1.37 0.17 92 1059.5
20260505123044 52 217 0.0 3.0 0.00 1.37 0.17 93 1059.5
20260505121548 52 257 1.0 6.0 0.00 1.37 0.17 93 1059.5
20260505120044 52 107 0.0 6.0 0.01 1.37 0.17 93 1059.5
20260505114542 52 103 1.0 4.0 0.01 1.37 0.17 94 1059.6
20260505113044 51 340 0.0 5.0 0.01 1.37 0.17 94 1059.7
20260505111545 51 304 0.0 4.0 0.01 1.37 0.17 94 1059.7
20260505101537 51 301 1.0 4.0 0.00 1.36 0.17 94 1059.9
20260505100036 51 259 1.0 5.0 0.00 1.36 0.17 94 1059.8
20260505094535 51 217 1.0 5.0 0.00 1.36 0.17 94 1059.8
20260505093045 51 266 0.0 2.0 0.00 1.36 0.17 95 1059.9
20260505091535 51 103 1.0 4.0 0.00 1.36 0.17 95 1060.0
20260505090034 51 258 0.0 7.0 0.00 1.36 0.17 95 1059.9
20260505084535 51 239 0.0 4.0 0.00 1.36 0.17 95 1060.0
20260505083039 51 295 1.0 4.0 0.00 1.36 0.17 95 1060.0
20260505081532 50 303 1.0 6.0 0.00 1.36 0.17 95 1059.8
20260505080034 50 321 2.0 5.0 0.00 1.36 0.17 95 1060.0
20260505074530 50 332 0.0 4.0 0.00 1.36 0.17 95 1060.0
20260505073029 51 285 0.0 4.0 0.00 1.36 0.17 95 1059.9
20260505071527 51 280 1.0 5.0 0.00 1.36 0.17 95 1059.9
20260505070027 51 247 1.0 9.0 0.00 1.36 0.17 95 1059.8
20260505064525 51 283 1.0 8.0 0.00 1.36 0.17 95 1059.8
20260505063024 51 309 0.0 4.0 0.00 1.36 0.17 95 1059.9
20260505061524 51 308 2.0 5.0 0.00 1.36 0.17 95 1060.0
20260505060022 51 272 0.0 5.0 0.00 1.36 0.17 95 1060.0
20260505054526 51 97 1.0 4.0 0.00 1.36 0.17 95 1060.1
20260505053025 51 303 0.0 4.0 0.00 1.36 0.17 95 1060.0
20260505051522 52 125 1.0 6.0 0.00 1.36 0.17 95 1059.8
20260505041516 52 303 0.0 5.0 0.00 1.36 0.17 95 1059.9
20260505040030 52 297 0.0 5.0 0.02 1.36 0.17 95 1060.0
20260505034513 52 69 0.0 5.0 0.05 1.36 0.17 95 1060.0
20260505033015 53 243 0.0 3.0 0.06 1.36 0.17 95 1059.9
20260505031512 53 318 1.0 6.0 0.06 1.36 0.17 95 1060.0
20260505030016 53 208 0.0 4.0 0.04 1.35 0.15 95 1059.9
20260505024510 53 110 0.0 4.0 0.01 1.31 0.12 95 1060.0
20260505023008 53 316 0.0 5.0 0.00 1.31 0.11 95 1060.1
20260505021608 53 286 1.0 6.0 0.00 1.31 0.11 95 1060.0
20260505020008 54 293 2.0 6.0 0.00 1.31 0.11 95 1060.1
20260505014505 54 58 2.0 7.0 0.00 1.31 0.11 95 1060.2
20260505013003 54 325 1.0 5.0 0.00 1.31 0.11 95 1060.0
20260505011619 54 323 1.0 7.0 0.00 1.31 0.11 95 1060.0
20260505010107 55 281 0.0 4.0 0.00 1.31 0.11 95 1060.2
20260505004600 55 311 1.0 6.0 0.00 1.31 0.11 95 1060.3
20260505003056 55 310 0.0 4.0 0.00 1.31 0.11 95 1060.3
20260505001554 55 301 0.0 4.0 0.01 1.31 0.11 95 1060.4
20260505000100 55 269 0.0 5.0 0.02 1.31 0.11 95 1060.6
20260504234603 56 326 0.0 3.0 0.04 1.31 0.11 95 1060.6
20260504233049 56 26 0.0 3.0 0.06 1.31 0.11 95 1060.5
20260504231547 56 37 0.0 3.0 0.07 1.30 0.10 95 1060.6
20260504230045 57 19 0.0 2.0 0.09 1.28 0.09 95 1060.7
20260504224543 57 286 0.0 0.0 0.12 1.27 0.07 95 1060.8
20260504223043 57 354 0.0 0.0 0.15 1.24 0.05 95 1060.9
20260504221542 57 354 0.0 0.0 0.17 1.23 0.03 95 1061.0
20260504220047 57 354 0.0 0.0 0.19 1.20 0.00 95 1061.2
20260504214538 57 354 0.0 0.0 0.24 1.14 1.14 95 1061.3
20260504213052 57 355 0.0 0.0 0.23 1.09 1.09 95 1061.4
20260504211541 57 354 0.0 0.0 0.22 1.06 1.06 95 1061.5
20260504210036 57 354 0.0 0.0 0.21 1.01 1.01 95 1061.6
20260504204541 57 352 0.0 0.0 0.13 0.91 0.91 94 1061.6
20260504203035 57 64 0.0 0.0 0.08 0.87 0.87 94 1061.4
20260504201534 57 68 0.0 0.0 0.10 0.83 0.83 94 1061.4
20260504200034 57 68 0.0 0.0 0.14 0.80 0.80 94 1061.5
20260504194533 57 51 0.0 0.0 0.13 0.80 0.79 94 1061.4
20260504193041 57 212 0.0 0.0 0.13 0.80 0.79 94 1061.4
20260504191535 57 212 0.0 0.0 0.09 0.74 0.73 94 1061.3
20260504190034 57 212 0.0 0.0 0.02 0.66 0.65 94 1061.2
20260504184531 57 212 0.0 1.0 0.02 0.66 0.65 94 1061.0
20260504183030 58 204 0.0 1.0 0.02 0.66 0.65 94 1061.0
20260504181534 58 278 0.0 0.0 0.01 0.65 0.64 94 1061.0
20260504180030 58 278 0.0 0.0 0.02 0.64 0.63 94 1061.0
20260504174529 57 278 0.0 0.0 0.14 0.66 0.63 94 1061.1
20260504173031 57 278 0.0 1.0 0.28 0.66 0.63 93 1061.1
20260504171528 57 278 0.0 0.0 0.61 0.66 0.63 93 1061.1